[[{"header":{"parameterUnit":"m.s-1","parameterCategory":1,"la1":30.2991,"la2":30.254,"lo1":-89.0895,"lo2":-89.0444,"dy":0.0017,"dx":0.0017,"nx":28,"ny":28,"refTime":"2024-09-02T21:00:00:Z","depth":0,"parameterNumber":2,"parameterNumberName":"U-component_of_WINDS"},"data":[0,0,0,0,0,0,0,0,0,0,0,0,0,0,0,0,0,0,0,0,0,0,0,0,0,0,0,0,0,0,0,0,0,0,0,0,0,0,0,0,0,0,0,0,0,0,0,0,0,0,0,0,0,0,0,0,0,0,0.2678,0.2679,0,0.2808,0.281,0.2811,0.2934,0.2936,0.2938,0.2939,0.3063,0.3065,0.3067,0,0,0,0,0,0,0,0,0,0,0,0,0,0.2528,0.253,0.2678,0.268,0.2681,0.2808,0.281,0.2812,0.2934,0.2936,0.2938,0.294,0.3063,0.3065,0.3067,0,0,0,0,0,0,0,0,0,0,0,0,0,0.2619,0.2531,0.2678,0.2758,0.2766,0.2808,0.281,0.2812,0.2934,0.2936,0.2939,0.2941,0.3062,0.3065,0.3067,0.3037,0,0,0.3076,0.3077,0,0,0,0,0,0,0,0,0.2613,0.2624,0.2744,0.2752,0.2762,0.2858,0.2803,0.2887,0.2933,0.287,0.2939,0.2942,0.2992,0.3001,0.302,0.3043,0.3048,0.3076,0.3078,0.3079,0.308,0,0,0,0,0,0,0,0.2607,0.2619,0.2729,0.2746,0.2757,0.2785,0.2801,0.2819,0.2916,0.2876,0.2885,0.2899,0.2998,0.3017,0.3024,0.305,0.3076,0.3079,0.308,0.3081,0.3055,0.3053,0,0,0,0,0,0,0.259,0.2613,0.2725,0.2733,0.2692,0.2786,0.2803,0.2824,0.2916,0.2933,0.2897,0.2904,0.3011,0.302,0.3029,0.2999,0.3079,0.3082,0.3083,0.3058,0.3055,0.3052,0,0,0,0,0,0,0.2586,0.2598,0.272,0.2676,0.2694,0.2786,0.2809,0.2826,0.2846,0.2933,0.295,0.29,0.3013,0.3025,0.3035,0.3005,0.3083,0.3085,0.306,0.3057,0.3054,0.2939,0,0,0,0,0,0,0.2581,0.2596,0.2587,0.2675,0.2695,0.2725,0.2807,0.2827,0.2851,0.2862,0.2939,0.2954,0.3016,0.303,0.3038,0.301,0.3087,0.3063,0.3059,0.3055,0.2946,0.2932,0.2921,0,0,0,0,0,0.2575,0.2548,0.2586,0.2599,0.2686,0.2724,0.2735,0.2809,0.2848,0.2839,0.2895,0.2952,0.3008,0.303,0.304,0.3013,0.3066,0.306,0.3055,0.2952,0.2935,0.2921,0,0,0,0,0,0,0.245,0.2561,0.2604,0.2605,0.2654,0.2744,0.2734,0.2789,0.2826,0.2834,0.2923,0.2939,0.2939,0.2977,0.3,0.2989,0.3045,0.3041,0.2963,0.2948,0.2935,0.2924,0.309,0,0,0,0,0,0.2424,0.2447,0.2541,0.2532,0.2556,0.2641,0.266,0.2713,0.2767,0.2787,0.2844,0.2891,0.292,0.2936,0.2967,0.2954,0.2971,0.294,0.2927,0.2916,0.2911,0.2906,0.2892,0.3035,0.3035,0.3035,0,0,0.2367,0.243,0.2439,0.2509,0.2554,0.2574,0.2657,0.2675,0.269,0.2789,0.2802,0.2846,0.2905,0.2903,0.2905,0.2935,0.2876,0.2909,0.29,0.2901,0.2899,0.2885,0.2873,0.3031,0.3032,0.3033,0,0,0.2273,0.2325,0.2323,0.2367,0.2436,0.2493,0.2492,0.2575,0.2609,0.2625,0.27,0.2718,0.2766,0.2805,0.283,0.2755,0.2808,0.2763,0.2694,0.2689,0.2677,0.2668,0.2639,0.2628,0.2758,0.2758,0.2757,0,0.2193,0.2229,0.2314,0.2329,0.2357,0.2452,0.245,0.2487,0.256,0.2576,0.261,0.2673,0.2719,0.2727,0.2709,0.2728,0.2728,0.2752,0.2673,0.2664,0.2656,0.263,0.2619,0.2751,0.2752,0.2753,0.2753,0,0.2127,0.2151,0.2141,0.2213,0.2241,0.2246,0.233,0.2347,0.2399,0.2452,0.2466,0.2526,0.2571,0.2578,0.2627,0.2593,0.261,0.2657,0.2714,0.2635,0.2612,0.2602,0.2743,0.2745,0.2747,0.2748,0,0,0.1955,0.2077,0.2072,0.2106,0.2189,0.2208,0.2218,0.2265,0.2277,0.2325,0.2334,0.2374,0.2419,0.2448,0.2503,0.2498,0.2434,0.2547,0.2549,0.2522,0.2398,0.236,0.2347,0.2471,0.247,0.2468,0.2393,0,0.1874,0.19,0.1978,0.1979,0.2001,0.2093,0.2102,0.2152,0.2203,0.2227,0.2283,0.2309,0.2367,0.2385,0.2385,0.2441,0.2409,0.2448,0.2477,0.2477,0.2457,0.2335,0.2295,0.222,0.2384,0.2383,0.2382,0,0.1782,0.1828,0.1831,0.1916,0.1928,0.1934,0.1984,0.2008,0.2067,0.2104,0.2138,0.2201,0.2214,0.2271,0.2289,0.2314,0.2331,0.236,0.2359,0.2362,0.2422,0.2332,0.2198,0.2185,0.2368,0.2369,0.237,0,0.1654,0.1716,0.1727,0.1753,0.1852,0.1854,0.1895,0.1957,0.1981,0.2024,0.204,0.2084,0.2106,0.2137,0.2209,0.2244,0.2219,0.2281,0.2247,0.2245,0.2235,0.2234,0.2099,0.225,0.225,0.225,0.2251,0,0.1553,0.1551,0.1671,0.1676,0.1677,0.1767,0.1764,0.1813,0.1868,0.1884,0.1966,0.1978,0.2074,0.2097,0.2153,0.2159,0.2169,0.2198,0.2212,0.2189,0.2184,0.2198,0.2204,0.2248,0.2248,0.2249,0.2249,0,0.1408,0.1489,0.1506,0.16,0.1623,0.1619,0.1698,0.1706,0.1764,0.1782,0.1792,0.188,0.1911,0.1988,0.2038,0.2076,0.2066,0.2094,0.2046,0.2055,0.2016,0.2017,0.1882,0.1868,0.203,0.2029,0.2028,0,0.1337,0.1339,0.1434,0.1452,0.149,0.1518,0.1544,0.1633,0.1656,0.1725,0.1724,0.1763,0.1799,0.1844,0.1911,0.195,0.1978,0.1928,0.1984,0.1961,0.1974,0.1972,0.1972,0.1914,0.1912,0.191,0.1909,0,0.1203,0.1243,0.1279,0.1329,0.1358,0.1401,0.1448,0.1457,0.1557,0.1578,0.1613,0.1641,0.1695,0.1731,0.1781,0.1821,0.188,0.1892,0.1886,0.186,0.1831,0.1844,0.201,0.1893,0.1895,0.1896,0.1897,0.1897,0.1091,0.1097,0.1165,0.1202,0.1248,0.1291,0.1303,0.1364,0.1396,0.1448,0.1499,0.1528,0.1588,0.1662,0.1698,0.1721,0.1751,0.1742,0.174,0.1735,0.1724,0.1831,0.173,0.1731,0.1731,0.1732,0.1732,0,0.0959,0.1008,0.1042,0.1107,0.1136,0.1195,0.125,0.1269,0.1295,0.1348,0.1383,0.1422,0.1459,0.153,0.1572,0.1577,0.1605,0.1584,0.1583,0.1591,0.1696,0.1696,0.1561,0.1561,0.1561,0.1561,0.1561,0.1561,0.0893,0.0906,0.0954,0.099,0.1039,0.1071,0.1097,0.1136,0.1179,0.1221,0.1253,0.1301,0.1361,0.1409,0.1444,0.1464,0.1474,0.1445,0.1472,0.1568,0.1584,0.1599,0.16,0.1447,0.1447,0.1366,0.1365,0.1365]},{"header":{"parameterUnit":"m.s-1","parameterCategory":1,"la1":30.2991,"la2":30.254,"lo1":-89.0895,"lo2":-89.0444,"dy":0.0017,"dx":0.0017,"nx":28,"ny":28,"refTime":"2024-09-02T21:00:00:Z","depth":0,"parameterNumber":3,"parameterNumberName":"V-component_of_WINDS"},"data":[0,0,0,0,0,0,0,0,0,0,0,0,0,0,0,0,0,0,0,0,0,0,0,0,0,0,0,0,0,0,0,0,0,0,0,0,0,0,0,0,0,0,0,0,0,0,0,0,0,0,0,0,0,0,0,0,0,0,-3.4841,-3.4841,0,-3.4833,-3.4833,-3.4833,-3.4768,-3.4766,-3.4765,-3.4763,-3.4755,-3.4756,-3.4757,0,0,0,0,0,0,0,0,0,0,0,0,0,-3.48,-3.4801,-3.4841,-3.4841,-3.4841,-3.4833,-3.4833,-3.4833,-3.4768,-3.4766,-3.4764,-3.4763,-3.4754,-3.4756,-3.4757,0,0,0,0,0,0,0,0,0,0,0,0,0,-3.4808,-3.4802,-3.4841,-3.4808,-3.4805,-3.4833,-3.4833,-3.4833,-3.4769,-3.4766,-3.4764,-3.4762,-3.4754,-3.4755,-3.4757,-3.4817,0,0,-3.4763,-3.4764,0,0,0,0,0,0,0,0,-3.4807,-3.4809,-3.4813,-3.481,-3.4807,-3.4799,-3.4815,-3.4828,-3.4769,-3.4783,-3.4763,-3.4761,-3.4771,-3.4772,-3.4775,-3.4817,-3.4816,-3.4763,-3.4764,-3.4765,-3.4766,0,0,0,0,0,0,0,-3.4807,-3.4809,-3.4838,-3.4813,-3.4809,-3.4793,-3.4792,-3.4817,-3.479,-3.4781,-3.4776,-3.4776,-3.4769,-3.4774,-3.4775,-3.4816,-3.4763,-3.4765,-3.4766,-3.4767,-3.4904,-3.4907,0,0,0,0,0,0,-3.4811,-3.4809,-3.4838,-3.4838,-3.4801,-3.4796,-3.4794,-3.4804,-3.479,-3.4786,-3.4778,-3.4773,-3.4772,-3.4772,-3.4774,-3.4841,-3.4765,-3.4767,-3.4768,-3.4902,-3.4905,-3.4907,0,0,0,0,0,0,-3.4811,-3.4814,-3.4839,-3.4822,-3.4824,-3.4799,-3.4811,-3.4805,-3.4809,-3.4788,-3.4783,-3.4788,-3.477,-3.4771,-3.4806,-3.484,-3.4768,-3.4769,-3.4899,-3.4903,-3.4906,-3.4977,0,0,0,0,0,0,-3.481,-3.4815,-3.4837,-3.4823,-3.4825,-3.4872,-3.4813,-3.4807,-3.4813,-3.4806,-3.4795,-3.4791,-3.4768,-3.4804,-3.4808,-3.4841,-3.4771,-3.4895,-3.49,-3.4905,-3.4971,-3.4983,-3.4992,0,0,0,0,0,-3.4808,-3.4858,-3.4839,-3.4842,-3.4853,-3.4874,-3.4875,-3.4847,-3.4816,-3.4838,-3.4824,-3.4792,-3.4836,-3.4808,-3.4812,-3.4846,-3.4893,-3.4899,-3.4905,-3.4967,-3.4981,-3.4992,0,0,0,0,0,0,-3.4876,-3.4855,-3.4834,-3.488,-3.4879,-3.4863,-3.4889,-3.4863,-3.487,-3.4864,-3.4829,-3.4827,-3.4867,-3.4861,-3.483,-3.4903,-3.4859,-3.4866,-3.4905,-3.4918,-3.4928,-3.4928,-3.4773,0,0,0,0,0,-3.4896,-3.4915,-3.4896,-3.4938,-3.4939,-3.4915,-3.4923,-3.4902,-3.4899,-3.4898,-3.4887,-3.4886,-3.4899,-3.4908,-3.492,-3.4971,-3.4967,-3.4997,-3.5007,-3.5016,-3.5021,-3.5046,-3.5059,-3.4926,-3.4926,-3.4926,0,0,-3.4938,-3.4929,-3.4943,-3.4952,-3.4948,-3.4968,-3.4915,-3.4938,-3.4952,-3.4902,-3.4933,-3.4925,-3.4922,-3.4965,-3.4983,-3.496,-3.5058,-3.5023,-3.503,-3.5031,-3.5054,-3.5066,-3.5077,-3.493,-3.4929,-3.4929,0,0,-3.5023,-3.502,-3.5054,-3.5052,-3.5047,-3.5031,-3.5039,-3.5027,-3.502,-3.5051,-3.5014,-3.503,-3.5055,-3.5053,-3.5055,-3.5141,-3.5111,-3.5146,-3.5199,-3.5224,-3.5235,-3.5244,-3.5272,-3.5283,-3.5152,-3.5152,-3.5152,0,-3.5075,-3.5103,-3.5075,-3.51,-3.5104,-3.5061,-3.5094,-3.5094,-3.5094,-3.5098,-3.5073,-3.5102,-3.5097,-3.5138,-3.5159,-3.5163,-3.517,-3.5146,-3.5236,-3.5244,-3.5252,-3.5279,-3.529,-3.5156,-3.5156,-3.5155,-3.5155,0,-3.5167,-3.5187,-3.5215,-3.5216,-3.5224,-3.5254,-3.5228,-3.524,-3.5219,-3.5205,-3.5237,-3.523,-3.5238,-3.5247,-3.5226,-3.5285,-3.5271,-3.5242,-3.5197,-3.527,-3.5294,-3.5304,-3.5162,-3.5161,-3.516,-3.5159,0,0,-3.5292,-3.5277,-3.5288,-3.5287,-3.528,-3.5294,-3.5322,-3.533,-3.534,-3.5342,-3.5363,-3.5385,-3.5358,-3.5361,-3.534,-3.5363,-3.5429,-3.533,-3.5329,-3.5347,-3.5491,-3.5511,-3.5523,-3.541,-3.5412,-3.5413,-3.549,0,-3.5372,-3.5418,-3.5393,-3.5442,-3.5459,-3.5419,-3.5443,-3.5441,-3.5429,-3.5442,-3.5429,-3.5444,-3.5408,-3.5409,-3.543,-3.5416,-3.5457,-3.5411,-3.5428,-3.5429,-3.5427,-3.5536,-3.5558,-3.5631,-3.55,-3.5501,-3.5503,0,-3.5471,-3.5477,-3.5528,-3.5516,-3.5523,-3.5545,-3.555,-3.5563,-3.556,-3.555,-3.5554,-3.5527,-3.5553,-3.5511,-3.5545,-3.5515,-3.5521,-3.5515,-3.5517,-3.5516,-3.5468,-3.5535,-3.5654,-3.5664,-3.5518,-3.5517,-3.5516,0,-3.5554,-3.5575,-3.5608,-3.5609,-3.5597,-3.5613,-3.5609,-3.5604,-3.561,-3.5615,-3.5619,-3.5627,-3.5631,-3.5638,-3.5614,-3.5586,-3.5651,-3.5608,-3.5642,-3.5643,-3.5656,-3.5655,-3.5774,-3.5664,-3.5664,-3.5664,-3.5664,0,-3.5645,-3.5677,-3.5645,-3.5664,-3.5699,-3.5671,-3.5705,-3.5697,-3.5693,-3.571,-3.5676,-3.5693,-3.5662,-3.5676,-3.5658,-3.5689,-3.5691,-3.5683,-3.5677,-3.5684,-3.5685,-3.5686,-3.5679,-3.5667,-3.5666,-3.5666,-3.5665,0,-3.5742,-3.5722,-3.5754,-3.5741,-3.5739,-3.5764,-3.5753,-3.577,-3.5757,-3.5779,-3.5782,-3.5761,-3.5775,-3.5754,-3.5766,-3.5754,-3.5795,-3.5783,-3.5796,-3.5791,-3.5826,-3.5822,-3.5948,-3.5962,-3.5846,-3.5847,-3.5848,0,-3.5799,-3.5823,-3.5812,-3.5821,-3.5819,-3.5834,-3.584,-3.5814,-3.5822,-3.582,-3.5838,-3.585,-3.5857,-3.5882,-3.5867,-3.5876,-3.5863,-3.5906,-3.5864,-3.587,-3.586,-3.5858,-3.586,-3.5914,-3.5915,-3.5917,-3.5918,0,-3.5902,-3.5891,-3.5902,-3.5909,-3.5918,-3.5922,-3.5924,-3.5934,-3.5906,-3.5917,-3.5931,-3.5937,-3.5949,-3.5961,-3.5966,-3.5962,-3.5935,-3.5932,-3.594,-3.5946,-3.5951,-3.5946,-3.5817,-3.5928,-3.5927,-3.5926,-3.5926,-3.5925,-3.5979,-3.5998,-3.5993,-3.6006,-3.6005,-3.6007,-3.6023,-3.6012,-3.6023,-3.6031,-3.6015,-3.6033,-3.6029,-3.6034,-3.6033,-3.6046,-3.6027,-3.6039,-3.6042,-3.6044,-3.6049,-3.5952,-3.6047,-3.6047,-3.6047,-3.6046,-3.6046,0,-3.6078,-3.6074,-3.6086,-3.6089,-3.61,-3.6075,-3.6076,-3.6086,-3.6102,-3.6101,-3.6109,-3.6125,-3.6137,-3.6124,-3.6133,-3.6146,-3.6134,-3.6149,-3.6146,-3.6145,-3.6067,-3.6058,-3.6158,-3.6158,-3.6158,-3.6158,-3.6158,-3.6158,-3.6131,-3.616,-3.6149,-3.6178,-3.6173,-3.619,-3.6192,-3.6195,-3.6194,-3.6213,-3.6222,-3.6214,-3.6208,-3.6216,-3.6226,-3.6221,-3.6225,-3.6244,-3.6236,-3.6162,-3.6151,-3.614,-3.6131,-3.6246,-3.6246,-3.6313,-3.6313,-3.6314]}]]